Time,TemperatureF,DewpointF,PressureIn,WindDirection,WindDirectionDegrees,WindSpeedMPH,WindSpeedGustMPH,Humidity,HourlyPrecipIn,Conditions,Clouds,dailyrainin,SoftwareType,DateUTC
2013-03-07 00:01:00,70.0,68.0,29.82,East,98,4.0,13.0,95,0.00,,,1.84,,2013-03-07 06:01:00,
2013-03-07 00:11:00,70.0,68.0,29.82,East,98,4.0,13.0,95,0.00,,,1.84,,2013-03-07 06:11:00,
2013-03-07 00:21:00,70.0,68.0,29.80,ESE,111,6.0,12.0,95,0.00,,,1.70,,2013-03-07 06:21:00,
2013-03-07 00:31:00,70.0,69.0,29.80,ESE,103,3.0,10.0,96,0.00,,,1.80,,2013-03-07 06:31:00,
2013-03-07 00:41:00,69.0,68.0,29.79,SE,135,8.0,11.0,98,0.00,,,1.78,,2013-03-07 06:41:00,
2013-03-07 00:52:00,69.0,68.0,29.79,SE,135,8.0,11.0,98,0.00,,,1.78,,2013-03-07 06:52:00,
2013-03-07 01:01:00,69.0,68.0,29.79,SE,125,5.0,17.0,98,0.00,,,1.77,,2013-03-07 07:01:00,
2013-03-07 01:11:00,69.0,68.0,29.79,SE,125,5.0,17.0,98,0.00,,,1.77,,2013-03-07 07:11:00,
2013-03-07 01:21:00,69.0,68.0,29.79,ESE,123,2.0,8.0,97,0.00,,,1.87,,2013-03-07 07:21:00,
2013-03-07 01:31:00,69.0,68.0,29.78,SE,127,6.0,14.0,97,0.00,,,1.70,,2013-03-07 07:31:00,
2013-03-07 01:41:00,69.0,68.0,29.78,SE,127,6.0,14.0,97,0.00,,,1.70,,2013-03-07 07:41:00,
2013-03-07 01:52:00,69.0,68.0,29.78,SE,129,8.0,14.0,97,0.00,,,1.71,,2013-03-07 07:52:00,
2013-03-07 02:01:00,69.0,68.0,29.77,ESE,123,8.0,16.0,98,0.00,,,1.75,,2013-03-07 08:01:00,
2013-03-07 02:11:00,69.0,68.0,29.77,ESE,123,8.0,16.0,98,0.00,,,1.75,,2013-03-07 08:11:00,
2013-03-07 02:21:00,69.0,68.0,29.78,ESE,112,5.0,12.0,98,0.00,,,1.87,,2013-03-07 08:21:00,
2013-03-07 02:31:00,69.0,69.0,29.77,East,99,4.0,10.0,99,0.00,,,1.83,,2013-03-07 08:31:00,
2013-03-07 02:43:00,69.0,69.0,29.77,East,99,4.0,10.0,99,0.00,,,1.83,,2013-03-07 08:43:00,
2013-03-07 02:53:00,69.0,68.0,29.76,East,95,2.0,11.0,98,0.00,,,1.69,,2013-03-07 08:53:00,
2013-03-07 03:01:00,69.0,68.0,29.77,ENE,68,3.0,10.0,98,0.00,,,1.75,,2013-03-07 09:01:00,
2013-03-07 03:11:00,69.0,68.0,29.77,ENE,68,3.0,10.0,98,0.00,,,1.75,,2013-03-07 09:11:00,
2013-03-07 03:21:00,69.0,69.0,29.76,ESE,119,3.0,8.0,99,0.00,,,1.66,,2013-03-07 09:21:00,
2013-03-07 03:31:00,69.0,68.0,29.76,ESE,123,3.0,11.0,98,0.00,,,1.72,,2013-03-07 09:31:00,
2013-03-07 03:41:00,69.0,68.0,29.76,ESE,123,3.0,11.0,98,0.00,,,1.72,,2013-03-07 09:41:00,
2013-03-07 03:52:00,69.0,68.0,29.77,ENE,73,4.0,11.0,97,0.00,,,1.75,,2013-03-07 09:52:00,
2013-03-07 04:01:00,69.0,68.0,29.76,East,97,2.0,8.0,97,0.00,,,1.71,,2013-03-07 10:01:00,
2013-03-07 04:11:00,69.0,68.0,29.76,East,97,2.0,8.0,97,0.00,,,1.71,,2013-03-07 10:11:00,
2013-03-07 04:21:00,69.0,68.0,29.76,SE,133,7.0,15.0,97,0.00,,,1.80,,2013-03-07 10:21:00,
2013-03-07 04:31:00,69.0,68.0,29.77,East,80,4.0,15.0,98,0.00,,,1.76,,2013-03-07 10:31:00,
2013-03-07 04:41:00,69.0,68.0,29.77,East,80,4.0,15.0,98,0.00,,,1.76,,2013-03-07 10:41:00,
2013-03-07 04:52:00,69.0,69.0,29.77,ESE,106,4.0,10.0,99,0.00,,,1.81,,2013-03-07 10:52:00,
2013-03-07 05:01:00,69.0,68.0,29.76,East,101,3.0,10.0,98,0.00,,,1.78,,2013-03-07 11:01:00,
2013-03-07 05:11:00,69.0,68.0,29.76,East,101,3.0,10.0,98,0.00,,,1.78,,2013-03-07 11:11:00,
2013-03-07 05:21:00,69.0,69.0,29.78,ENE,65,2.0,5.0,99,0.00,,,1.81,,2013-03-07 11:21:00,
2013-03-07 05:32:00,69.0,68.0,29.78,East,83,5.0,17.0,97,0.00,,,1.73,,2013-03-07 11:32:00,
2013-03-07 05:41:00,69.0,68.0,29.78,East,83,5.0,17.0,97,0.00,,,1.73,,2013-03-07 11:41:00,
2013-03-07 05:53:00,70.0,68.0,29.78,East,82,3.0,17.0,95,0.00,,,1.74,,2013-03-07 11:53:00,
2013-03-07 06:01:00,69.0,68.0,29.79,East,85,5.0,14.0,96,0.00,,,1.75,,2013-03-07 12:01:00,
2013-03-07 06:11:00,69.0,68.0,29.79,East,85,5.0,14.0,96,0.00,,,1.75,,2013-03-07 12:11:00,
2013-03-07 06:21:00,69.0,68.0,29.80,East,94,5.0,10.0,97,0.00,,,1.59,,2013-03-07 12:21:00,
2013-03-07 06:32:00,69.0,68.0,29.80,East,98,4.0,11.0,97,0.00,,,1.71,,2013-03-07 12:32:00,
2013-03-07 06:42:00,69.0,68.0,29.80,East,98,4.0,11.0,97,0.00,,,1.71,,2013-03-07 12:42:00,
2013-03-07 06:52:00,70.0,69.0,29.80,ESE,110,7.0,11.0,96,0.00,,,1.70,,2013-03-07 12:52:00,
2013-03-07 07:01:00,72.0,70.0,29.80,SE,125,3.0,8.0,94,0.00,,,1.74,,2013-03-07 13:01:00,
2013-03-07 07:11:00,72.0,70.0,29.80,SE,125,3.0,8.0,94,0.00,,,1.74,,2013-03-07 13:11:00,
2013-03-07 07:21:00,72.0,69.0,29.80,East,88,4.0,9.0,91,0.00,,,1.79,,2013-03-07 13:21:00,
2013-03-07 07:31:00,73.0,70.0,29.81,ESE,110,6.0,12.0,90,0.00,,,1.72,,2013-03-07 13:31:00,
2013-03-07 07:41:00,73.0,70.0,29.81,ESE,110,6.0,12.0,90,0.00,,,1.72,,2013-03-07 13:41:00,
2013-03-07 07:53:00,72.0,69.0,29.81,East,101,8.0,18.0,90,0.00,,,1.69,,2013-03-07 13:53:00,
2013-03-07 08:01:00,72.0,69.0,29.81,ESE,106,10.0,17.0,90,0.00,,,1.72,,2013-03-07 14:01:00,
2013-03-07 08:11:00,72.0,69.0,29.81,ESE,106,10.0,17.0,90,0.00,,,1.72,,2013-03-07 14:11:00,
2013-03-07 08:21:00,72.0,70.0,29.82,SE,129,12.0,21.0,92,0.00,,,1.81,,2013-03-07 14:21:00,
2013-03-07 08:31:00,72.0,69.0,29.83,ENE,77,7.0,15.0,91,0.00,,,1.85,,2013-03-07 14:31:00,
2013-03-07 08:41:00,72.0,69.0,29.83,ENE,77,7.0,15.0,91,0.00,,,1.85,,2013-03-07 14:41:00,
2013-03-07 08:53:00,70.0,68.0,29.83,NE,39,10.0,27.0,95,0.00,,,2.07,,2013-03-07 14:53:00,
2013-03-07 09:01:00,69.0,68.0,29.85,ENE,68,11.0,25.0,96,0.00,,,1.88,,2013-03-07 15:01:00,
2013-03-07 09:11:00,69.0,68.0,29.85,ENE,68,11.0,25.0,96,0.00,,,1.88,,2013-03-07 15:11:00,
2013-03-07 09:21:00,69.0,68.0,29.84,ENE,69,13.0,22.0,96,0.00,,,1.83,,2013-03-07 15:21:00,
2013-03-07 09:31:00,69.0,68.0,29.84,NE,55,13.0,25.0,96,0.00,,,2.01,,2013-03-07 15:31:00,
2013-03-07 09:41:00,69.0,68.0,29.84,NE,55,13.0,25.0,96,0.00,,,2.01,,2013-03-07 15:41:00,
2013-03-07 09:52:00,69.0,68.0,29.83,ENE,66,7.0,31.0,98,0.00,,,2.14,,2013-03-07 15:52:00,
2013-03-07 10:01:00,69.0,68.0,29.84,ENE,63,10.0,27.0,96,0.00,,,2.02,,2013-03-07 16:01:00,
2013-03-07 10:11:00,69.0,68.0,29.84,ENE,63,10.0,27.0,96,0.00,,,2.02,,2013-03-07 16:11:00,
2013-03-07 10:21:00,69.0,68.0,29.84,ENE,74,9.0,27.0,96,0.00,,,2.03,,2013-03-07 16:21:00,
2013-03-07 10:31:00,71.0,69.0,29.83,NE,37,10.0,20.0,93,0.00,,,1.92,,2013-03-07 16:31:00,
2013-03-07 10:41:00,71.0,69.0,29.83,NE,37,10.0,20.0,93,0.00,,,1.92,,2013-03-07 16:41:00,
2013-03-07 10:52:00,72.0,70.0,29.82,NNE,26,9.0,26.0,92,0.00,,,2.22,,2013-03-07 16:52:00,
2013-03-07 11:01:00,72.0,69.0,29.82,NE,34,15.0,23.0,91,0.00,,,2.05,,2013-03-07 17:01:00,
2013-03-07 11:11:00,72.0,69.0,29.82,NE,34,15.0,23.0,91,0.00,,,2.05,,2013-03-07 17:11:00,
2013-03-07 11:21:00,74.0,71.0,29.80,NE,45,15.0,26.0,89,0.00,,,2.09,,2013-03-07 17:21:00,
2013-03-07 11:31:00,73.0,70.0,29.80,NE,49,10.0,25.0,90,0.00,,,1.90,,2013-03-07 17:31:00,
2013-03-07 11:53:00,74.0,71.0,29.79,NE,44,5.0,23.0,90,0.00,,,2.09,,2013-03-07 17:53:00,
2013-03-07 12:01:00,73.0,70.0,29.79,NE,40,6.0,18.0,91,0.00,,,2.04,,2013-03-07 18:01:00,
2013-03-07 12:11:00,73.0,70.0,29.79,NE,40,6.0,18.0,91,0.00,,,2.04,,2013-03-07 18:11:00,
2013-03-07 12:21:00,73.0,70.0,29.79,East,90,8.0,21.0,90,0.00,,,2.11,,2013-03-07 18:21:00,
2013-03-07 12:31:00,73.0,70.0,29.78,NE,43,8.0,15.0,91,0.00,,,2.03,,2013-03-07 18:31:00,
2013-03-07 12:41:00,73.0,70.0,29.78,NE,43,8.0,15.0,91,0.00,,,2.03,,2013-03-07 18:41:00,
2013-03-07 12:52:00,72.0,70.0,29.78,NNE,33,10.0,21.0,92,0.00,,,1.99,,2013-03-07 18:52:00,
2013-03-07 13:01:00,72.0,70.0,29.78,NE,48,8.0,21.0,92,0.00,,,2.19,,2013-03-07 19:01:00,
2013-03-07 13:11:00,73.0,70.0,29.76,NE,52,4.0,17.0,91,0.00,,,2.04,,2013-03-07 19:11:00,
2013-03-07 13:21:00,73.0,70.0,29.76,NE,52,4.0,17.0,91,0.00,,,2.04,,2013-03-07 19:21:00,
2013-03-07 13:31:00,73.0,70.0,29.76,NE,48,11.0,18.0,90,0.00,,,2.03,,2013-03-07 19:31:00,
2013-03-07 13:42:00,73.0,70.0,29.76,NE,48,11.0,18.0,90,0.00,,,2.03,,2013-03-07 19:42:00,
2013-03-07 13:52:00,74.0,70.0,29.75,NE,41,11.0,19.0,88,0.00,,,2.19,,2013-03-07 19:52:00,
2013-03-07 14:01:00,74.0,71.0,29.75,NE,42,9.0,17.0,89,0.00,,,2.03,,2013-03-07 20:01:00,
2013-03-07 14:11:00,74.0,71.0,29.75,NE,42,9.0,17.0,89,0.00,,,2.03,,2013-03-07 20:11:00,
2013-03-07 14:21:00,73.0,70.0,29.75,ESE,105,4.0,15.0,89,0.00,,,2.08,,2013-03-07 20:21:00,
2013-03-07 14:31:00,73.0,70.0,29.74,ENE,69,6.0,14.0,90,0.00,,,2.15,,2013-03-07 20:31:00,
2013-03-07 14:41:00,73.0,70.0,29.74,ENE,69,6.0,14.0,90,0.00,,,2.15,,2013-03-07 20:41:00,
2013-03-07 14:53:00,72.0,69.0,29.74,NE,35,10.0,23.0,91,0.00,,,2.01,,2013-03-07 20:53:00,
2013-03-07 15:01:00,72.0,70.0,29.74,NNE,22,15.0,21.0,92,0.00,,,2.06,,2013-03-07 21:01:00,
2013-03-07 15:11:00,72.0,70.0,29.74,NNE,22,15.0,21.0,92,0.00,,,2.06,,2013-03-07 21:11:00,
2013-03-07 15:21:00,72.0,70.0,29.74,NE,35,13.0,19.0,93,0.00,,,2.00,,2013-03-07 21:21:00,
2013-03-07 15:31:00,71.0,69.0,29.74,NE,41,12.0,20.0,95,0.00,,,2.10,,2013-03-07 21:31:00,
2013-03-07 15:41:00,71.0,69.0,29.74,NE,41,12.0,20.0,95,0.00,,,2.10,,2013-03-07 21:41:00,
2013-03-07 15:52:00,71.0,69.0,29.73,NE,48,9.0,19.0,95,0.00,,,2.07,,2013-03-07 21:52:00,
2013-03-07 16:01:00,71.0,70.0,29.74,NNE,31,9.0,22.0,96,0.00,,,2.05,,2013-03-07 22:01:00,
2013-03-07 16:11:00,71.0,70.0,29.74,NNE,31,9.0,22.0,96,0.00,,,2.05,,2013-03-07 22:11:00,
2013-03-07 16:21:00,71.0,70.0,29.74,NE,39,9.0,20.0,96,0.00,,,2.05,,2013-03-07 22:21:00,
2013-03-07 16:31:00,71.0,69.0,29.75,NE,47,13.0,21.0,94,0.00,,,1.96,,2013-03-07 22:31:00,
2013-03-07 16:41:00,71.0,69.0,29.75,NE,47,13.0,21.0,94,0.00,,,1.96,,2013-03-07 22:41:00,
2013-03-07 16:53:00,71.0,69.0,29.75,NE,44,7.0,13.0,94,0.00,,,2.00,,2013-03-07 22:53:00,
2013-03-07 17:01:00,71.0,69.0,29.75,NNE,16,4.0,15.0,95,0.00,,,1.70,,2013-03-07 23:01:00,
2013-03-07 17:11:00,71.0,69.0,29.75,NNE,16,4.0,15.0,95,0.00,,,1.70,,2013-03-07 23:11:00,
2013-03-07 17:21:00,70.0,68.0,29.75,NE,45,12.0,20.0,95,0.00,,,0.00,,2013-03-07 23:21:00,
2013-03-07 17:31:00,69.0,68.0,29.76,NE,44,10.0,19.0,98,0.00,,,0.00,,2013-03-07 23:31:00,
2013-03-07 17:41:00,69.0,68.0,29.76,NE,44,10.0,19.0,98,0.00,,,0.00,,2013-03-07 23:41:00,
2013-03-07 17:53:00,69.0,69.0,29.75,NE,40,8.0,20.0,99,0.00,,,0.00,,2013-03-07 23:53:00,
2013-03-07 18:01:00,68.0,68.0,29.76,NE,35,8.0,17.0,99,0.00,,,0.00,,2013-03-08 00:01:00,
2013-03-07 18:11:00,68.0,68.0,29.76,NE,35,8.0,17.0,99,0.00,,,0.00,,2013-03-08 00:11:00,
2013-03-07 18:21:00,68.0,68.0,29.76,NE,52,7.0,17.0,99,0.00,,,0.00,,2013-03-08 00:21:00,
2013-03-07 18:31:00,68.0,68.0,29.77,NE,35,9.0,18.0,99,0.00,,,0.00,,2013-03-08 00:31:00,
2013-03-07 18:42:00,68.0,68.0,29.77,NE,35,9.0,18.0,99,0.00,,,0.00,,2013-03-08 00:42:00,
2013-03-07 18:53:00,68.0,68.0,29.78,NE,43,8.0,17.0,99,0.00,,,0.00,,2013-03-08 00:53:00,
2013-03-07 19:01:00,68.0,68.0,29.79,NE,38,8.0,22.0,99,0.00,,,0.00,,2013-03-08 01:01:00,
2013-03-07 19:11:00,68.0,68.0,29.79,NE,38,8.0,22.0,99,0.00,,,0.00,,2013-03-08 01:11:00,
2013-03-07 19:21:00,68.0,68.0,29.79,ENE,72,11.0,18.0,99,0.00,,,0.00,,2013-03-08 01:21:00,
2013-03-07 19:31:00,69.0,69.0,29.79,East,95,5.0,11.0,99,0.00,,,0.00,,2013-03-08 01:31:00,
2013-03-07 19:41:00,69.0,69.0,29.79,East,95,5.0,11.0,99,0.00,,,0.00,,2013-03-08 01:41:00,
2013-03-07 19:52:00,69.0,68.0,29.79,ENE,73,8.0,17.0,97,0.00,,,0.00,,2013-03-08 01:52:00,
2013-03-07 20:01:00,69.0,68.0,29.80,ENE,65,7.0,21.0,97,0.00,,,0.00,,2013-03-08 02:01:00,
2013-03-07 20:11:00,69.0,68.0,29.79,East,96,9.0,17.0,97,0.00,,,0.00,,2013-03-08 02:11:00,
2013-03-07 20:21:00,69.0,68.0,29.79,East,96,9.0,17.0,97,0.00,,,0.00,,2013-03-08 02:21:00,
2013-03-07 20:31:00,69.0,68.0,29.80,East,85,8.0,14.0,97,0.00,,,0.00,,2013-03-08 02:31:00,
2013-03-07 20:41:00,69.0,68.0,29.80,East,85,8.0,14.0,97,0.00,,,0.00,,2013-03-08 02:41:00,
2013-03-07 20:52:00,70.0,69.0,29.80,East,87,6.0,14.0,96,0.00,,,0.00,,2013-03-08 02:52:00,
2013-03-07 21:01:00,70.0,68.0,29.80,East,88,5.0,11.0,93,0.00,,,0.00,,2013-03-08 03:01:00,
2013-03-07 21:11:00,70.0,68.0,29.80,East,88,5.0,11.0,93,0.00,,,0.00,,2013-03-08 03:11:00,
2013-03-07 21:21:00,70.0,68.0,29.80,East,83,6.0,11.0,93,0.00,,,0.00,,2013-03-08 03:21:00,
2013-03-07 21:32:00,70.0,68.0,29.81,ENE,75,4.0,15.0,92,0.00,,,0.00,,2013-03-08 03:32:00,
2013-03-07 21:41:00,70.0,68.0,29.81,ENE,75,4.0,15.0,92,0.00,,,0.00,,2013-03-08 03:41:00,
2013-03-07 21:52:00,70.0,68.0,29.81,East,86,3.0,13.0,93,0.00,,,0.00,,2013-03-08 03:52:00,
2013-03-07 22:01:00,70.0,68.0,29.81,ENE,68,3.0,11.0,94,0.00,,,0.00,,2013-03-08 04:01:00,
2013-03-07 22:11:00,69.0,67.0,29.81,ENE,68,3.0,8.0,94,0.00,,,0.00,,2013-03-08 04:11:00,
2013-03-07 22:21:00,69.0,67.0,29.81,ENE,68,3.0,8.0,94,0.00,,,0.00,,2013-03-08 04:21:00,
2013-03-07 22:31:00,70.0,68.0,29.80,ESE,103,4.0,9.0,93,0.00,,,0.00,,2013-03-08 04:31:00,
2013-03-07 22:42:00,70.0,68.0,29.80,ESE,103,4.0,9.0,93,0.00,,,0.00,,2013-03-08 04:42:00,
2013-03-07 22:52:00,70.0,68.0,29.81,ESE,116,8.0,17.0,93,0.00,,,0.00,,2013-03-08 04:52:00,
2013-03-07 23:01:00,69.0,67.0,29.81,ESE,114,6.0,16.0,94,0.00,,,0.00,,2013-03-08 05:01:00,
2013-03-07 23:11:00,69.0,67.0,29.81,ESE,114,6.0,16.0,94,0.00,,,0.00,,2013-03-08 05:11:00,
2013-03-07 23:22:00,69.0,68.0,29.81,ESE,115,6.0,16.0,95,0.00,,,0.00,,2013-03-08 05:22:00,
2013-03-07 23:31:00,69.0,68.0,29.81,East,97,6.0,10.0,96,0.00,,,0.00,,2013-03-08 05:31:00,
2013-03-07 23:42:00,69.0,68.0,29.81,East,97,6.0,10.0,96,0.00,,,0.00,,2013-03-08 05:42:00,
2013-03-07 23:52:00,69.0,68.0,29.80,East,91,7.0,13.0,96,0.00,,,0.00,,2013-03-08 05:52:00,